Location: Baia de Cri?
(46.1667°N, 22.7167°E)
Time: 20:23:04
(UTC+00:00)

Tiangong - Pass Details

Date: 12 March 2026
Orbit: 375 x 384 km, 41.5° (Epoch: 21 April)

Event Time Altitude Azimuth Distance (km) Brightness Sun altitude
Exits shadow 03:48:07 - 210° (SSW) 1,669 0.7 -11.2°
Reaches altitude 10° 03:48:59 10° 200° (SSW) 1,407 0.5 -11.0°
Maximum altitude 03:51:07 17° 157° (SSE) 1,080 0.3 -10.7°
Drops below altitude 10° 03:53:16 10° 115° (ESE) 1,418 1.7 -10.3°
Sets 03:55:50 0° 94° (E) 2,279 3.8 -9.9°
